GW5596 Weather Reports


time (UTC)temp
F
wind
direction
speed
knots
gust
knots
rain 1hr
in
rain 24hr
in
rain mn
in
humidity
%
barometer
mb
20260906221557 82 301 0.9 5.2 0.00 0.00 0.00 35 1018.8
20260906220042 84 89 2.6 7.8 0.00 0.00 0.00 30 1019.1
20260906213049 85 79 4.3 9.6 0.00 0.00 0.00 32 1019.5
20260906211543 82 330 1.7 11.3 0.00 0.00 0.00 34 1019.5
20260906210047 84 350 3.5 10.4 0.00 0.00 0.00 32 1019.3
20260906204558 83 83 4.3 11.3 0.00 0.00 0.00 33 1019.8
20260906203043 85 47 3.5 13.9 0.00 0.00 0.00 32 1019.8
20260906201601 86 13 3.5 10.4 0.00 0.00 0.00 32 1019.9
20260906200043 86 197 3.5 13.0 0.00 0.00 0.00 31 1020.1
20260906194546 85 286 4.3 11.3 0.00 0.00 0.00 31 1020.0
20260906193042 83 6 4.3 12.2 0.00 0.00 0.00 31 1020.0
20260906191542 85 90 4.3 10.4 0.00 0.00 0.00 31 1020.3
20260906190044 85 108 3.5 11.3 0.00 0.00 0.00 25 1020.4
20260906184553 87 124 4.3 7.8 0.00 0.00 0.00 24 1020.7
20260906183042 86 105 3.5 8.7 0.00 0.00 0.00 28 1020.8
20260906181544 85 88 1.7 7.0 0.00 0.00 0.00 27 1021.4
20260906180059 85 71 1.7 5.2 0.00 0.00 0.00 30 1021.9
20260906174551 83 91 1.7 6.1 0.00 0.00 0.00 31 1022.2
20260906173045 81 72 3.5 7.8 0.00 0.00 0.00 33 1022.5
20260906171548 81 311 1.7 5.2 0.00 0.00 0.00 35 1022.8
20260906170054 80 0 0.0 3.5 0.00 0.00 0.00 37 1023.0
20260906164543 79 52 1.7 3.5 0.00 0.00 0.00 36 1023.2
20260906163046 76 97 1.7 2.6 0.00 0.00 0.00 37 1023.2
20260906161542 76 0 0.0 2.6 0.00 0.00 0.00 40 1023.2
20260906160042 75 0 0.0 1.7 0.00 0.00 0.00 41 1023.4
20260906154543 72 0 0.0 2.6 0.00 0.00 0.00 45 1023.5
20260906153043 72 0 0.0 0.9 0.00 0.00 0.00 45 1023.7
20260906151542 69 0 0.0 0.0 0.00 0.00 0.00 49 1023.7
20260906150040 68 0 0.0 0.0 0.00 0.00 0.00 51 1023.9
20260906144548 65 0 0.0 0.0 0.00 0.00 0.00 55 1023.9
20260906143043 63 0 0.0 0.0 0.00 0.00 0.00 58 1023.9
20260906141542 59 0 0.0 0.0 0.00 0.00 0.00 68 1024.0
20260906140041 56 0 0.0 0.0 0.00 0.00 0.00 74 1024.0
20260906134544 51 0 0.0 0.0 0.00 0.00 0.00 82 1024.0
20260906133046 48 0 0.0 0.0 0.00 0.00 0.00 86 1024.0
20260906131545 47 0 0.0 0.0 0.00 0.00 0.00 86 1023.9
20260906130043 46 0 0.0 0.0 0.00 0.00 0.00 88 1023.7
20260906124557 45 0 0.0 0.0 0.00 0.00 0.00 89 1023.6
20260906123045 45 0 0.0 0.0 0.00 0.00 0.00 89 1023.6
20260906121545 46 0 0.0 0.0 0.00 0.00 0.00 88 1023.6
20260906120109 46 0 0.0 0.0 0.00 0.00 0.00 87 1023.9
20260906114544 47 0 0.0 0.0 0.00 0.00 0.00 86 1023.8
20260906113048 48 0 0.0 0.0 0.00 0.00 0.00 85 1023.6
20260906111554 49 0 0.0 0.0 0.00 0.00 0.00 84 1023.5
20260906110045 49 0 0.0 0.0 0.00 0.00 0.00 84 1023.4
20260906104545 48 0 0.0 0.0 0.00 0.00 0.00 86 1023.4
20260906103045 49 0 0.0 0.0 0.00 0.00 0.00 85 1023.3
20260906101542 49 0 0.0 0.0 0.00 0.00 0.00 85 1023.3
20260906100050 50 0 0.0 0.0 0.00 0.00 0.00 84 1023.2
20260906094544 50 0 0.0 0.0 0.00 0.00 0.00 83 1023.3
20260906093042 50 0 0.0 0.0 0.00 0.00 0.00 83 1023.3
20260906091540 51 0 0.0 0.0 0.00 0.00 0.00 83 1023.3
20260906090054 51 0 0.0 0.0 0.00 0.00 0.00 82 1023.2
20260906084549 52 0 0.0 0.0 0.00 0.00 0.00 81 1023.3
20260906083042 52 0 0.0 0.0 0.00 0.00 0.00 81 1023.2
20260906081546 52 0 0.0 0.0 0.00 0.00 0.00 80 1023.2
20260906080044 52 0 0.0 0.0 0.00 0.00 0.00 79 1023.4
20260906074544 53 0 0.0 0.0 0.00 0.00 0.00 78 1023.4
20260906073043 53 0 0.0 0.0 0.00 0.00 0.00 78 1023.5
20260906071557 54 0 0.0 0.0 0.00 0.00 0.00 75 1023.6
20260906070042 55 0 0.0 0.0 0.00 0.00 0.00 74 1023.5
20260906064539 56 0 0.0 0.0 0.00 0.00 0.00 71 1023.5
20260906063053 58 0 0.0 0.0 0.00 0.00 0.00 67 1023.5
20260906061544 61 0 0.0 0.0 0.00 0.00 0.00 63 1023.6
20260906060042 62 0 0.0 0.0 0.00 0.00 0.00 62 1023.5
20260906054546 63 0 0.0 0.0 0.00 0.00 0.00 60 1023.7
20260906053050 64 0 0.0 0.9 0.00 0.00 0.00 57 1023.9
20260906051543 66 101 0.9 4.3 0.00 0.00 0.00 54 1023.9
20260906050044 66 0 0.0 2.6 0.00 0.00 0.00 52 1023.7
20260906044546 67 0 0.0 0.9 0.00 0.00 0.00 49 1023.9
20260906043043 68 0 0.0 4.3 0.00 0.00 0.00 49 1023.9
20260906041542 65 0 0.0 5.2 0.00 0.00 0.00 50 1023.9
20260906040047 64 293 0.0 2.6 0.00 0.00 0.00 50 1023.7
20260906034547 62 131 1.7 2.6 0.00 0.00 0.00 52 1023.0
20260906033044 62 0 0.0 0.0 0.00 0.00 0.00 54 1022.6
20260906031542 64 0 0.0 0.0 0.00 0.00 0.00 51 1022.3
20260906030046 63 282 0.0 2.6 0.00 0.00 0.00 52 1022.4
20260906024558 64 0 0.0 0.0 0.00 0.00 0.00 50 1021.9
20260906023044 65 0 0.0 0.0 0.00 0.00 0.00 48 1021.8
20260906021544 64 0 0.0 0.0 0.00 0.00 0.00 49 1021.8
20260906020050 67 0 0.0 0.0 0.00 0.00 0.00 45 1021.7
20260906014552 69 0 0.0 0.0 0.00 0.00 0.00 43 1021.5
20260906013047 72 0 0.0 0.0 0.00 0.00 0.00 38 1021.4
20260906011545 75 0 0.0 2.6 0.00 0.00 0.00 34 1021.3
20260906010043 77 0 1.7 7.0 0.00 0.00 0.00 32 1021.3
20260906004544 79 114 1.7 4.3 0.00 0.00 0.00 30 1021.2
20260906003102 79 99 3.5 7.0 0.00 0.00 0.00 29 1021.1
20260906001545 80 117 3.5 12.2 0.00 0.00 0.00 29 1021.0
20260906000043 81 123 4.3 7.0 0.00 0.00 0.00 28 1020.9
20260905234541 82 124 0.9 7.8 0.00 0.00 0.00 26 1020.8
20260905233043 82 109 2.6 6.1 0.00 0.00 0.00 26 1020.8
20260905231544 81 63 2.6 8.7 0.00 0.00 0.00 27 1020.8
20260905230042 82 82 2.6 7.8 0.00 0.00 0.00 26 1020.8
20260905224542 85 105 2.6 4.3 0.00 0.00 0.00 24 1020.6